Regional Weather Roundup
Issued by NWS

Home | Current Version | Previous Version | Graphics & Text | Print | Product List | Glossary On
Versions: 1 2 3 4 5 6 7 8 9 10 11 12 13 14 15 16 17 18 19 20 21 22 23 24 25 26 27 28 29 30 31 32 33 34 35 36 37 38 39 40 41 42 43 44 45 46 47 48 49 50
000
ASUS43 KBIS 221602
RWRND

NORTH DAKOTA REGIONAL WEATHER ROUNDUP
NATIONAL WEATHER SERVICE BISMARCK ND
1100 AM CDT MON MAY 22 2017

NOTE: "FAIR" INDICATES FEW OR NO CLOUDS BELOW 12,000 FEET WITH NO
SIGNIFICANT WEATHER AND/OR OBSTRUCTIONS TO VISIBILITY.


NDZ001>003-009>011-017-221700-
NORTHWEST NORTH DAKOTA

CITY           SKY/WX    TMP DP  RH WIND       PRES   REMARKS
WILLISTON      FAIR      62  37  39 N12       30.05R
MINOT          CLOUDY    56  36  47 N15G29    29.98S
MINOT AFB      CLOUDY    57  35  44 N15       29.98S
$$

NDZ018>021-031>035-040>046-221700-
SOUTHWEST NORTH DAKOTA

CITY           SKY/WX    TMP DP  RH WIND       PRES   REMARKS
BISMARCK       FAIR      59  37  44 N10       29.96F
DICKINSON      FAIR      55  42  61 N12       29.99S
GARRISON         N/A     57  35  43 NE14G23   29.98S
HETTINGER ARPT MOSUNNY   56  42  59 N20       30.00R
$$

NDZ004>008-012>016-024-026-027-054-221700-
NORTHEAST NORTH DAKOTA

CITY           SKY/WX    TMP DP  RH WIND       PRES   REMARKS
GRAND FORKS    CLOUDY    53  43  68 NW16G23   29.84S
GRND FRKS AFB  CLOUDY    53  42  68 N14       29.85S
DEVILS LAKE    PTSUNNY   53  39  59 N16G23    29.91S
$$

NDZ022-023-025-028>030-036>039-047>053-221700-
SOUTHEAST NORTH DAKOTA

CITY           SKY/WX    TMP DP  RH WIND       PRES   REMARKS
FARGO          CLOUDY    58  45  62 NW18      29.84F
JAMESTOWN      FAIR      57  41  55 N18G29    29.88F
$$





USA.gov is the U.S. government's official web portal to all federal, state and local government web resources and services.